Regional Weather Roundup
Issued by NWS State College, PA

Home | Current Version | Previous Version | Graphics & Text | Print | Product List | Glossary On
Versions: 1 2 3 4 5 6 7 8 9 10 11 12 13 14 15 16 17 18 19 20 21 22 23 24 25 26 27 28 29 30 31 32 33 34 35 36 37 38 39 40 41 42 43 44 45 46 47 48 49 50
000
ASUS41 KCTP 221910
RWRCTP

REGIONAL WEATHER ROUNDUP
NATIONAL WEATHER SERVICE STATE COLLEGE PA
300 PM EDT FRI MAY 22 2015

Note: "fair" indicates few or no clouds below 12,000 feet with no
significant weather and/or obstructions to visibility.

* = STATION THAT DOES NOT REPORT PRECIPITATION /E.G. RAIN...SNOW...ETC/
    THUNDER OR FOG.

PAZ002>004-007>009-013>016-020>023-029>032-222000-
WESTERN PENNSYLVANIA

CITY           SKY/WX    TMP DP  RH WIND       PRES   REMARKS
ERIE           SUNNY     58  34  40 W18G30    30.17R
MEADVILLE      SUNNY     57  27  31 NW9G21    30.17R
FRANKLIN*      SUNNY     59  27  29 NW10G26   30.16R
NEW CASTLE     FAIR      65  32  29 W12G22    30.17R
BEAVER COUNTY  SUNNY     64  32  29 NW17G29   30.15R
BUTLER*        SUNNY     64  37  36 NW15G24   30.16R
PITTSBURGH INT PTSUNNY   67  45  45 W22G29    30.13R
PITTSBURGH     CLOUDY    62  41  46 W18G25    30.13R
INDIANA*       MOSUNNY   64  45  48 NW16G24   30.13S
LATROBE        PTSUNNY   64  46  52 W12G21    30.14R
WASHINGTON CO* PTSUNNY   63  46  55 W9G17     30.18S
$$

PAZ004>006-010>012-017>019-024>028-033>037-041-042-045-046-049>053-222000-
CENTRAL PENNSYLVANIA

CITY           SKY/WX    TMP DP  RH WIND       PRES   REMARKS
BRADFORD       SUNNY     59  22  24 W17G29    30.08R
DUBOIS         SUNNY     65  29  25 W20G29    30.08R
CLEARFIELD     MOSUNNY   64  39  39 W18G29    30.06S
JOHNSTOWN      CLOUDY    57  43  59 W14G23    30.10R
ALTOONA        LGT RAIN  62  47  57 W13       30.09R
STATE COLLEGE  MOSUNNY   64  43  45 W17G25    30.05F
WILLIAMSPORT   PTSUNNY   66  41  40 W15G22    29.98R
SELINSGROVE    MOSUNNY   70  46  42 W10G20    30.01S
FT INDIANTOWN  MOSUNNY   70  43  36 W21G35    30.02R
CAPITAL CITY   PTSUNNY   71  39  31 NW20G37   30.03R
HARRISBURG     PTSUNNY   72  43  35 NW25G31   30.01S
YORK           PTSUNNY   70  41  34 W14G25    30.03S
$$

PAZ038>040-043-044-047-048-054-055-060>062-067>071-222000-
EASTERN PENNSYLVANIA

CITY           SKY/WX    TMP DP  RH WIND       PRES   REMARKS
SCRANTON       CLOUDY    65  37  35 NW12      29.97R
MOUNT POCONO   LGT RAIN  58  40  51 NW12G21   29.98R
ALLENTOWN      CLOUDY    70  42  36 W17G26    29.97S
QUAKERTOWN*    PTCLDY    68  43  40 W12G21    29.99S
READING        MOSUNNY   73  40  30 W20G32    29.98S
LANCASTER      MOSUNNY   68  42  38 W17       30.01S
COATESVILLE    PTCLDY    72  41  33 NW17      30.02S
POTTSTOWN      MOSUNNY   72  43  35 W9G21     30.00S
BLUE BELL      MOSUNNY   72  43  35 W9G20     29.98S
DOYLESTOWN     MOSUNNY   72  40  31 W14G26    29.97S
WILLOW GROVE   NOT AVBL
NORTH PHILA    MOSUNNY   76  40  27 W21       29.99S
PHILADELPHIA   PTSUNNY   74  40  29 W18       30.00S
$$



USA.gov is the U.S. government's official web portal to all federal, state and local government web resources and services.